sat.trackr.live / text

‹ back to catalog

QIANFAN-81

NORAD 63167 · 2025-046J

PAYLOAD ACTIVE UNKNOWN

§ Identity

Operator
Country
PRC
Launch date
2025-03-11
Launch site
WSC
Launch vehicle
Mass (kg)
RCS (m²)

External: N2YO · Heavens-Above · Gunter

§ Orbital elements

Epoch: 2026-09-22T21:24:04.296960Z

Period
106.59 min
Inclination
88.9641°
Eccentricity
0.0015541
Mean motion
13.51021411 rev/d
Perigee alt
1,056.9 km
Apogee alt
1,080.1 km
Semi-major
7,446.6 km
B*
1.5290e-4
RAAN
290.3681°
Arg perigee
28.4974°
Mean anomaly
331.7024°
Rev number
8,585

§ Raw data

QIANFAN-811 63167U 25046J   26265.89171640  .00000111  00000+0  15290-3 0  99992 63167  88.9641 290.3681 0015541  28.4974 331.7024 13.51021411 85855

JSON: /api/v1/satellites/63167 · /tle

For live sub-satellite position, see the globe view (requires WebGL).

§ Visibility from observer

Set your observer location to see the next 7 days of passes ≥ 10°. The values pass through the URL so the page stays shareable.

No JS? Fill the form by hand. The geolocation button needs JavaScript.